Flag for Canada Weather past 2 weeks in Shawinigan, Quebec, Canada

Now
18 °F

Cold.


Feels Like: 11 °F
Forecast: 15 / 31 °F
Wind: 5 mph from East

Location: Shawinigan CS

Current Time: Mar 3, 2015 at 7:22:11 PM

Latest Report: Mar 3, 2015 at 7:00 PM


Visibility: N/A

Pressure: 29.85 "Hg

Humidity: 41%

Dew point: -2 °F

Location of ShawiniganLocation

Historic Weather in Shawinigan — Graph

°F

Shawinigan temperature yesterday

Maximum temperature yesterday: 28 °F (at 1:00 PM)
Minimum temperature yesterday: 10 °F (at 11:00 PM)
Average temperature yesterday: 18 °F

Past Weeks' High & Low Weather Summary

 TemperatureHumidityPressure
High28 °F (Mar 2, 1:00 PM)86% (Feb 25, 4:00 PM)30.63 "Hg (Feb 25, 4:00 PM)
Low-24 °F (Feb 24, 6:00 AM)33% (Mar 2, 5:00 PM)29.54 "Hg (Feb 20, 12:00 AM)
Average6 °F60%30.08 "Hg
* Reported Feb 16 6:00 PM — Mar 3 6:00 PM, Shawinigan, Weather by CustomWeather, © 2015

Note: Actual official high and low records may vary slightly from our data, if they occured in-between our weather recording intervals... More about our weather records

Advertising

Shawinigan weather history for previous 24 hours

 ConditionsComfort  
Time TempWeatherWind HumidityBarometerVisibility
6:00 PM
Tue, Mar 3
18 °FCold.3 mph41%29.92 "HgN/A
5:00 PM19 °FCold.6 mph39%29.99 "HgN/A
4:00 PM20 °FCold.6 mph36%30.03 "HgN/A
3:00 PM19 °FCold.8 mph38%30.10 "HgN/A
1:00 PM18 °FCold.7 mph37%30.21 "HgN/A
12:00 PM17 °FCold.7 mph36%30.25 "HgN/A
11:00 AM15 °FCold.7 mph35%30.27 "HgN/A
10:00 AM11 °FCold.3 mph46%30.31 "HgN/A
9:00 AM7 °FFrigid.2 mph50%30.33 "HgN/A
8:00 AM-1 °FFrigid.2 mph63%30.32 "HgN/A
7:00 AM-3 °FFrigid.5 mph67%30.34 "HgN/A
6:00 AM-4 °FFrigid.3 mph67%30.34 "HgN/A
5:00 AM-3 °FFrigid.3 mph67%30.34 "HgN/A
4:00 AM-1 °FFrigid.1 mph65%30.32 "HgN/A
3:00 AM-1 °FFrigid.3 mph66%30.32 "HgN/A
2:00 AM1 °FFrigid.1 mph62%30.31 "HgN/A
1:00 AM7 °FFrigid.3 mph48%30.28 "HgN/A
12:00 AM9 °FFrigid.5 mph44%30.27 "HgN/A
11:00 PM
Mon, Mar 2
10 °FCold.5 mph43%30.25 "HgN/A
10:00 PM12 °FCold.6 mph42%30.24 "HgN/A
9:00 PM13 °FCold.6 mph42%30.21 "HgN/A
8:00 PM14 °FCold.5 mph40%30.19 "HgN/A
7:00 PM16 °FCold.9 mph39%30.16 "HgN/A
Weather by CustomWeather, © 2015

See weather overviewHow to use our weather pages